Torna al catalogo

STARLINK-35737

AttivoComunicazioniVLEO
NORAD 66219·PAYLOAD·🇺🇸 United States

Lanciato Oct 28, 2025 da Vandenberg Space Force Base

Loading…

Prossimi Passaggi (prossime 24 ore)

TLE

AggiornatoSource: CelesTrak SupGP

Epoca: Sep 15, 2026, 03:07 UTC

1 66219C 25244P   26258.13034722 -.00029760  00000+0 -87958-3 0  2589
2 66219  53.1578  66.6994 0001106  89.1864 138.8794 15.34394037    19

Traccia STARLINK-35737 in tempo reale con AllMySat

Download on the App Store